| time (UTC) | temp C | wind direction | speed KPH | gust KPH | rain 1hr cm | rain 24hr cm | rain mn cm | humidity % | barometer mb |
| 20260503034045 | 13 | 0 | 0.0 | 0.0 | 0.00 | 0.53 | 0.00 | 85 | 1013.9 |
| 20260503033044 | 12 | 0 | 0.0 | 0.0 | 0.00 | 0.53 | 0.00 | 89 | 1014.0 |
| 20260503032044 | 12 | 0 | 0.0 | 0.0 | 0.00 | 0.53 | 0.00 | 92 | 1014.1 |
| 20260503031043 | 12 | 0 | 0.0 | 0.0 | 0.00 | 0.53 | 0.00 | 92 | 1014.1 |
| 20260503030044 | 12 | 0 | 0.0 | 0.0 | 0.00 | 0.53 | 0.00 | 92 | 1014.1 |
| 20260503025044 | 12 | 0 | 0.0 | 0.0 | 0.00 | 0.53 | 0.00 | 91 | 1014.1 |
| 20260503024046 | 13 | 0 | 0.0 | 0.0 | 0.00 | 0.53 | 0.00 | 90 | 1014.2 |
| 20260503023044 | 13 | 0 | 0.0 | 0.0 | 0.00 | 0.53 | 0.00 | 89 | 1014.2 |
| 20260503022045 | 13 | 0 | 0.0 | 0.0 | 0.00 | 0.53 | 0.00 | 91 | 1014.3 |
| 20260503021043 | 13 | 0 | 0.0 | 0.0 | 0.00 | 0.53 | 0.00 | 89 | 1014.3 |
| 20260503014045 | 13 | 0 | 0.0 | 0.0 | 0.00 | 0.53 | 0.00 | 89 | 1014.6 |
| 20260503013046 | 13 | 0 | 0.0 | 0.0 | 0.00 | 0.53 | 0.00 | 88 | 1014.5 |
| 20260503012044 | 13 | 0 | 0.0 | 0.0 | 0.00 | 0.53 | 0.00 | 87 | 1014.6 |
| 20260503011046 | 14 | 0 | 0.0 | 0.0 | 0.00 | 0.53 | 0.00 | 86 | 1014.7 |
| 20260503010047 | 13 | 0 | 0.0 | 0.0 | 0.00 | 0.53 | 0.00 | 87 | 1014.9 |
| 20260503005046 | 13 | 0 | 0.0 | 0.0 | 0.00 | 0.53 | 0.00 | 89 | 1015.0 |
| 20260503004045 | 13 | 0 | 0.0 | 0.0 | 0.00 | 0.53 | 0.00 | 89 | 1015.0 |
| 20260503003047 | 13 | 0 | 0.0 | 0.0 | 0.00 | 0.53 | 0.00 | 91 | 1015.1 |
| 20260503002047 | 13 | 0 | 0.0 | 0.0 | 0.00 | 0.53 | 0.00 | 93 | 1015.2 |
| 20260503001046 | 13 | 0 | 0.0 | 0.0 | 0.00 | 0.53 | 0.00 | 92 | 1015.2 |
| 20260502235049 | 13 | 0 | 0.0 | 0.0 | 0.00 | 0.53 | 0.00 | 91 | 1015.3 |
| 20260502234046 | 13 | 0 | 0.0 | 0.0 | 0.00 | 0.53 | 0.00 | 91 | 1015.3 |
| 20260502233049 | 13 | 0 | 0.0 | 0.0 | 0.00 | 0.53 | 0.00 | 90 | 1015.3 |
| 20260502232048 | 14 | 0 | 0.0 | 0.0 | 0.00 | 0.53 | 0.00 | 89 | 1015.3 |
| 20260502225046 | 15 | 0 | 0.0 | 0.0 | 0.00 | 0.53 | 0.00 | 87 | 1015.4 |
| 20260502224045 | 15 | 0 | 0.0 | 0.0 | 0.00 | 0.53 | 0.00 | 86 | 1015.4 |
| 20260502221045 | 13 | 0 | 0.0 | 0.0 | 0.00 | 0.53 | 0.00 | 93 | 1015.7 |
| 20260502215045 | 14 | 0 | 0.0 | 0.0 | 0.00 | 0.53 | 0.53 | 89 | 1015.7 |
| 20260502214047 | 15 | 0 | 0.0 | 0.0 | 0.00 | 0.53 | 0.53 | 85 | 1015.6 |
| 20260502213047 | 14 | 0 | 0.0 | 0.0 | 0.00 | 0.53 | 0.53 | 89 | 1015.7 |
| 20260502212050 | 13 | 0 | 0.0 | 0.0 | 0.00 | 0.53 | 0.53 | 89 | 1015.8 |
| 20260502211046 | 14 | 0 | 0.0 | 0.0 | 0.00 | 0.53 | 0.53 | 86 | 1015.8 |
| 20260502210050 | 13 | 0 | 0.0 | 0.0 | 0.00 | 0.53 | 0.53 | 89 | 1015.9 |
| 20260502205048 | 13 | 0 | 0.0 | 0.0 | 0.00 | 0.53 | 0.53 | 90 | 1015.9 |
| 20260502204052 | 13 | 0 | 0.0 | 0.0 | 0.00 | 0.53 | 0.53 | 94 | 1016.0 |
| 20260502203050 | 13 | 0 | 0.0 | 0.0 | 0.00 | 0.53 | 0.53 | 96 | 1016.1 |
| 20260502200051 | 13 | 0 | 0.0 | 0.0 | 0.00 | 0.53 | 0.53 | 93 | 1016.0 |
| 20260502195047 | 13 | 0 | 0.0 | 0.0 | 0.00 | 0.53 | 0.53 | 94 | 1016.0 |
| 20260502193050 | 13 | 0 | 0.0 | 0.0 | 0.00 | 0.53 | 0.53 | 94 | 1016.1 |
| 20260502192049 | 14 | 0 | 0.0 | 0.0 | 0.00 | 0.53 | 0.53 | 92 | 1016.3 |
| 20260502191050 | 14 | 0 | 0.0 | 0.0 | 0.00 | 0.53 | 0.53 | 92 | 1016.2 |
| 20260502190047 | 15 | 0 | 0.0 | 0.0 | 0.00 | 0.53 | 0.53 | 90 | 1016.2 |
| 20260502185047 | 15 | 0 | 0.0 | 0.0 | 0.00 | 0.53 | 0.53 | 86 | 1016.2 |
| 20260502184048 | 15 | 0 | 0.0 | 0.0 | 0.00 | 0.53 | 0.53 | 85 | 1016.1 |
| 20260502183050 | 15 | 0 | 0.0 | 0.0 | 0.15 | 0.53 | 0.53 | 89 | 1016.1 |
| 20260502182045 | 16 | 0 | 0.0 | 0.0 | 0.48 | 0.53 | 0.53 | 87 | 1016.0 |
| 20260502163048 | 22 | 0 | 0.0 | 0.0 | 0.00 | 0.03 | 0.03 | 52 | 1015.2 |
| 20260502162046 | 22 | 0 | 0.0 | 0.0 | 0.00 | 0.03 | 0.03 | 53 | 1015.4 |
| 20260502161051 | 22 | 0 | 0.0 | 0.0 | 0.00 | 0.03 | 0.03 | 53 | 1015.7 |
| 20260502152048 | 22 | 0 | 0.0 | 0.0 | 0.00 | 0.03 | 0.03 | 50 | 1016.1 |
| 20260502151050 | 23 | 0 | 0.0 | 0.0 | 0.00 | 0.03 | 0.03 | 52 | 1016.2 |
| 20260502123048 | 21 | 0 | 0.0 | 0.0 | 0.00 | 0.03 | 0.03 | 60 | 1018.8 |
| 20260502121044 | 21 | 0 | 0.0 | 0.0 | 0.00 | 0.03 | 0.03 | 61 | 1019.1 |
| 20260502115044 | 20 | 0 | 0.0 | 0.0 | 0.00 | 0.03 | 0.03 | 63 | 1019.4 |
| 20260502114046 | 21 | 0 | 0.0 | 0.0 | 0.00 | 0.03 | 0.03 | 61 | 1019.5 |
| 20260502113047 | 21 | 0 | 0.0 | 0.0 | 0.00 | 0.03 | 0.03 | 62 | 1019.5 |
| 20260502112047 | 20 | 0 | 0.0 | 0.0 | 0.00 | 0.03 | 0.03 | 64 | 1019.7 |
| 20260502111048 | 20 | 0 | 0.0 | 0.0 | 0.00 | 0.03 | 0.03 | 65 | 1019.8 |
| 20260502105048 | 21 | 0 | 0.0 | 0.0 | 0.00 | 0.03 | 0.03 | 64 | 1019.9 |
| 20260502104044 | 21 | 0 | 0.0 | 0.0 | 0.00 | 0.03 | 0.03 | 65 | 1020.0 |
| 20260502103045 | 20 | 0 | 0.0 | 0.0 | 0.00 | 0.03 | 0.03 | 66 | 1020.1 |
| 20260502101049 | 20 | 0 | 0.0 | 0.0 | 0.00 | 0.03 | 0.03 | 66 | 1020.3 |
| 20260502071046 | 13 | 0 | 0.0 | 0.0 | 0.00 | 0.03 | 0.03 | 76 | 1021.9 |
| 20260502064046 | 13 | 0 | 0.0 | 0.0 | 0.00 | 0.03 | 0.03 | 81 | 1022.0 |
| 20260502063046 | 13 | 0 | 0.0 | 0.0 | 0.00 | 0.03 | 0.03 | 74 | 1022.0 |
| 20260502062044 | 12 | 0 | 0.0 | 0.0 | 0.00 | 0.03 | 0.03 | 75 | 1022.0 |
| 20260502061047 | 12 | 0 | 0.0 | 0.0 | 0.00 | 0.03 | 0.03 | 74 | 1022.0 |
| 20260502060047 | 12 | 0 | 0.0 | 0.0 | 0.00 | 0.03 | 0.03 | 75 | 1022.2 |
| 20260502055046 | 12 | 0 | 0.0 | 0.0 | 0.00 | 0.03 | 0.03 | 77 | 1022.3 |
| 20260502053046 | 11 | 0 | 0.0 | 0.0 | 0.00 | 0.03 | 0.03 | 79 | 1022.1 |
| 20260502052043 | 11 | 0 | 0.0 | 0.0 | 0.00 | 0.03 | 0.03 | 80 | 1022.1 |
| 20260502051042 | 11 | 0 | 0.0 | 0.0 | 0.00 | 0.03 | 0.03 | 79 | 1022.1 |
| 20260502045046 | 11 | 0 | 0.0 | 0.0 | 0.00 | 0.03 | 0.03 | 80 | 1022.1 |
| 20260502044046 | 11 | 0 | 0.0 | 0.0 | 0.03 | 0.03 | 0.03 | 78 | 1022.1 |
| 20260502042043 | 10 | 0 | 0.0 | 0.0 | 0.03 | 0.03 | 0.03 | 81 | 1022.1 |
| 20260502035047 | 12 | 0 | 0.0 | 0.0 | 0.03 | 0.03 | 0.03 | 67 | 1021.9 |